Voltar ao catálogo

CZ-3A DEB

LostGTO
NORAD 35560·DEBRIS·🇨🇳 China

Lançado Feb 2, 2007 de Xichang Satellite Launch Center

Loading…

TLE

ObsoletoSource: Space-Track

Época: Nov 9, 2025, 11:31 UTC

1 35560U 07003U   25313.48019541  .00006855  00000-0  20130-1 0  9996
2 35560  23.2547 270.2329 7080757 155.5741 268.6838  2.44124813 38664

Acompanhe CZ-3A DEB em tempo real com AllMySat

Download on the App Store